Date String (YYYY-MM-DD hh:mm:ss) UTC,Instrument flags,Ambient pressure (hPa),Sample flow (lpm),Bypass flow (lpm),Sample temperature (°C),Ambient temperature (°C),ASC tube jacket temperature (°C),LED temperature (°C),Box temperature (°C),Sample RH (%),Span deviation,Mass concentration (μg/m³),Mass concentration (μg/m³),Mass concentration (μg/m³)
DateTimeUTC,F1_M11,P_M11,Q1_M11,Q2_M11,T1_M11,T2_M11,T3_M11,T4_M11,T5_M11,U1_M11,ZSPAN_M11,X0_M11,X2_M11,X1_M11
2021-10-10 13:00:00,,0823.9,4.99,0.00,26.1,25.4,00.0,35.2,27.9,14.3,0000.0,0005.87,0002.32,0001.68
2021-10-10 13:01:00,,0823.9,5.00,0.00,26.1,25.4,00.0,35.2,27.9,14.2,0000.0,0005.57,0002.25,0001.66
2021-10-10 13:02:00,,0823.9,5.00,0.00,26.2,25.4,00.0,35.3,28.0,14.1,0000.0,0004.82,0002.28,0001.65
2021-10-10 13:03:00,,0823.8,5.01,0.00,26.2,25.5,00.0,35.3,28.1,14.1,0000.0,0005.02,0002.29,0001.64
2021-10-10 13:04:00,,0823.9,4.99,0.00,26.2,25.5,00.0,35.3,28.1,13.8,0000.0,0004.70,0002.34,0001.63
2021-10-10 13:05:00,,0823.9,5.00,0.00,26.2,25.5,00.0,35.3,28.1,13.6,0000.0,0004.63,0002.33,0001.62
2021-10-10 13:06:00,,0823.8,5.00,0.00,26.3,25.6,00.0,35.3,28.1,13.4,0000.0,0004.59,0002.28,0001.62
2021-10-10 13:07:00,,0823.9,5.00,0.00,26.3,25.6,00.0,35.3,28.1,13.3,0000.0,0005.10,0002.22,0001.61
2021-10-10 13:08:00,,0823.9,5.00,0.00,26.3,25.6,00.0,35.3,28.2,13.3,0000.0,0005.61,0002.25,0001.60
2021-10-10 13:09:00,,0823.9,5.00,0.00,26.4,25.6,00.0,35.3,28.2,13.2,0000.0,0005.28,0002.23,0001.60
2021-10-10 13:10:00,,0823.9,5.00,0.00,26.4,25.7,00.0,35.4,28.3,13.1,0000.0,0005.13,0002.17,0001.58
2021-10-10 13:11:00,,0823.9,5.01,0.00,26.4,25.7,00.0,35.4,28.3,13.2,0000.0,0005.06,0002.14,0001.57
2021-10-10 13:12:00,,0823.9,5.01,0.00,26.4,25.7,00.0,35.4,28.3,13.2,0000.0,0004.99,0002.11,0001.56
2021-10-10 13:13:00,,0823.9,5.00,0.00,26.4,25.7,00.0,35.4,28.3,13.0,0000.0,0004.80,0002.05,0001.56
2021-10-10 13:14:00,,0823.9,5.01,0.00,26.5,25.7,00.0,35.4,28.3,13.1,0000.0,0004.59,0002.03,0001.58
2021-10-10 13:15:00,,0823.9,5.00,0.00,26.5,25.7,00.0,35.4,28.3,13.0,0000.0,0004.92,0001.94,0001.59
2021-10-10 13:16:00,,0823.9,4.99,0.00,26.5,25.7,00.0,35.5,28.3,13.0,0000.0,0004.74,0001.93,0001.60
2021-10-10 13:17:00,,0823.9,5.00,0.00,26.5,25.7,00.0,35.5,28.3,13.0,0000.0,0004.60,0001.96,0001.61
2021-10-10 13:18:00,,0823.9,5.00,0.00,26.5,25.7,00.0,35.5,28.3,13.0,0000.0,0003.90,0001.96,0001.62
2021-10-10 13:19:00,,0823.8,5.00,0.00,26.5,25.7,00.0,35.5,28.3,13.1,0000.0,0003.30,0001.94,0001.62
2021-10-10 13:20:00,,0823.9,5.01,0.00,26.5,25.7,00.0,35.5,28.4,13.1,0000.0,0003.43,0001.94,0001.62
2021-10-10 13:21:00,,0823.8,5.01,0.00,26.6,25.7,00.0,35.5,28.4,12.9,0000.0,0004.31,0001.98,0001.63
2021-10-10 13:22:00,,0823.8,4.99,0.00,26.6,25.7,00.0,35.6,28.4,13.0,0000.0,0004.29,0001.97,0001.64
2021-10-10 13:23:00,,0823.8,5.00,0.00,26.6,25.7,00.0,35.6,28.4,13.0,0000.0,0004.31,0002.00,0001.67
2021-10-10 13:24:00,,0823.8,5.01,0.00,26.6,25.8,00.0,35.6,28.4,13.0,0000.0,0004.32,0002.01,0001.69
2021-10-10 13:25:00,,0823.9,5.00,0.00,26.6,25.8,00.0,35.6,28.4,13.0,0000.0,0004.28,0002.00,0001.69
2021-10-10 13:26:00,,0823.9,4.99,0.00,26.6,25.8,00.0,35.6,28.5,13.0,0000.0,0003.78,0002.00,0001.68
2021-10-10 13:27:00,,0823.9,5.01,0.00,26.6,25.8,00.0,35.6,28.5,12.9,0000.0,0003.57,0002.01,0001.69
2021-10-10 13:28:00,,0823.9,5.01,0.00,26.6,25.8,00.0,35.6,28.5,12.9,0000.0,0003.67,0002.02,0001.68
2021-10-10 13:29:00,,0823.9,5.01,0.00,26.6,25.8,00.0,35.7,28.4,13.0,0000.0,0003.70,0001.99,0001.67
2021-10-10 13:30:00,,0824.0,4.99,0.00,26.6,25.8,00.0,35.7,28.4,13.0,0000.0,0003.72,0001.99,0001.68
2021-10-10 13:31:00,,0824.0,4.99,0.00,26.7,25.8,00.0,35.7,28.5,13.1,0000.0,0003.67,0001.96,0001.68
2021-10-10 13:32:00,,0824.0,5.01,0.00,26.7,25.8,00.0,35.7,28.5,13.1,0000.0,0002.85,0001.92,0001.68
2021-10-10 13:33:00,,0823.9,5.00,0.00,26.7,25.8,00.0,35.7,28.5,13.1,0000.0,0002.64,0001.93,0001.68
2021-10-10 13:34:00,,0824.0,5.00,0.00,26.7,25.8,00.0,35.7,28.5,13.1,0000.0,0002.74,0001.96,0001.67
2021-10-10 13:35:00,,0823.9,5.01,0.00,26.7,25.8,00.0,35.7,28.5,13.1,0000.0,0002.77,0001.96,0001.66
2021-10-10 13:36:00,,0824.0,5.00,0.00,26.7,25.8,00.0,35.7,28.5,13.0,0000.0,0002.77,0001.96,0001.66
2021-10-10 13:37:00,,0824.0,5.02,0.00,26.7,25.8,00.0,35.7,28.5,13.0,0000.0,0002.77,0001.96,0001.66
2021-10-10 13:38:00,,0824.0,4.98,0.00,26.7,25.9,00.0,35.7,28.5,13.0,0000.0,0002.75,0001.97,0001.66
2021-10-10 13:39:00,,0823.9,5.00,0.00,26.7,25.9,00.0,35.7,28.6,13.0,0000.0,0002.75,0001.99,0001.67
2021-10-10 13:40:00,,0824.0,5.01,0.00,26.8,25.8,00.0,35.8,28.6,13.0,0000.0,0003.21,0002.02,0001.67
2021-10-10 13:41:00,,0824.1,5.00,0.00,26.8,25.9,00.0,35.8,28.6,13.0,0000.0,0003.51,0002.04,0001.67
2021-10-10 13:42:00,,0824.1,5.00,0.00,26.8,25.9,00.0,35.8,28.6,13.0,0000.0,0003.48,0002.04,0001.67
2021-10-10 13:43:00,,0824.1,5.00,0.00,26.8,25.9,00.0,35.8,28.6,13.0,0000.0,0003.46,0002.03,0001.68
2021-10-10 13:44:00,,0824.1,4.99,0.00,26.8,25.9,00.0,35.8,28.6,13.0,0000.0,0003.47,0002.04,0001.69
2021-10-10 13:45:00,,0824.1,4.99,0.00,26.8,25.9,00.0,35.8,28.6,13.0,0000.0,0003.36,0002.00,0001.69
2021-10-10 13:46:00,,0824.1,4.99,0.00,26.8,25.9,00.0,35.8,28.6,13.1,0000.0,0003.89,0002.01,0001.68
2021-10-10 13:47:00,,0824.1,5.00,0.00,26.8,25.9,00.0,35.8,28.7,13.1,0000.0,0004.50,0002.03,0001.69
2021-10-10 13:48:00,,0824.1,4.99,0.00,26.8,25.9,00.0,35.9,28.7,13.0,0000.0,0004.44,0002.01,0001.69
2021-10-10 13:49:00,,0824.1,4.98,0.00,26.9,26.0,00.0,35.9,28.7,13.0,0000.0,0004.41,0001.99,0001.69
2021-10-10 13:50:00,,0824.1,5.00,0.00,26.9,26.0,00.0,35.9,28.7,13.1,0000.0,0004.38,0001.99,0001.68
2021-10-10 13:51:00,,0824.1,5.00,0.00,26.9,26.0,00.0,35.9,28.7,13.0,0000.0,0003.76,0001.94,0001.68
2021-10-10 13:52:00,,0824.1,5.00,0.00,26.9,26.0,00.0,35.9,28.7,13.0,0000.0,0003.37,0001.90,0001.68
2021-10-10 13:53:00,,0824.1,5.00,0.00,26.9,26.0,00.0,35.9,28.8,12.9,0000.0,0003.39,0001.91,0001.68
2021-10-10 13:54:00,,0824.1,5.00,0.00,26.9,26.1,00.0,35.9,28.8,13.0,0000.0,0003.43,0001.92,0001.69
2021-10-10 13:55:00,,0824.1,5.00,0.00,26.9,26.1,00.0,35.9,28.8,13.0,0000.0,0003.53,0001.91,0001.69
2021-10-10 13:56:00,,0824.1,4.99,0.00,26.9,26.1,00.0,35.9,28.8,13.0,0000.0,0003.78,0001.92,0001.68
2021-10-10 13:57:00,,0824.1,5.00,0.00,26.9,26.1,00.0,36.0,28.8,13.1,0000.0,0003.31,0001.91,0001.69
2021-10-10 13:58:00,,0824.1,5.00,0.00,27.0,26.1,00.0,36.0,28.8,13.0,0000.0,0002.62,0001.88,0001.69
2021-10-10 13:59:00,,0824.1,5.01,0.00,27.0,26.1,00.0,36.0,28.8,12.9,0000.0,0003.48,0001.89,0001.69
